星链-2753 (STARLINK-2753 )

导读 | 星芒AI

STARLINK-2753 是 SpaceX Starlink 卫星互联网项目中的一颗低轨卫星,属于第 27 批部署的星链卫星之一。该卫星运行在约 550 公里的近地轨道,旨在为全球用户提供高速互联网服务。作为星链计划的一部分,STARLINK-2753 采用先进推进系统和激光通信技术,支持星间通信,提高网络稳定性和覆盖范围。该卫星于 2023 年发射,是 SpaceX 扩展全球宽带网络覆盖、实现“数字公平”目标的重要组成部分。

基本信息
目录编号:
48696
目录名称:
STARLINK-2753
国际标识:
2021-044BL
轨道中心:
EARTH
卫星名称:
星链-2753
卫星全名:
星链-2753 (STARLINK-2753 )
卫星状态:
在轨 (已飞行1618 天)
发射日期:
2021-05-26 UTC
国别 :
美国 (US)
星等 :
--
轨道信息
数据来源 国际轨道数据
星历时间: 2025-10-30T14:34:20+0800
9小时前
查看轨道信息
半长轴: 6925.389km
偏心率: 0.0001417
轨道倾角: 53.055°
近地点辐角 88.225°
升交点赤经 317.124°
平近点角 271.890°
近地点: 546.272km
远地点: 548.236km
周期: 95.593分钟
每日圈数: 15.06387
详细信息
固有亮度:
5
最大亮度:
2.5
卫星平台:
Starlink v1.5
覆盖范围:
全球
运营商:
太空探索技术公司
运营商所在国:
美国
制造商(研发单位):
太空探索技术公司
制造商所在国:
美国
使用方式:
暂无
卫星简介
星链(Starlink)计划是由太空探索技术公司(SpaceX)提出的一个巨型低轨卫星互联网星座项目,计划在2019年至2024年间在太空搭建由约1.2万颗卫星组成的“星链”网络,其中1584颗将部署在地球上空550千米处的近地轨道,并从2020年开始工作。该卫星仍在工作。
2D轨道图
3D轨道图
轨道高度分析图
轨道倾角分析图
轨道综合分析图
查看轨道综合分析图